690  
ASUS42 KMHX 300915  
RWRMHX  
WEATHER ROUNDUP FOR EASTERN NORTH CAROLINA  
NATIONAL WEATHER SERVICE NEWPORT/MOREHEAD CITY NC  
500 AM EDT THU MAY 30 2024  
 
NOTE: "FAIR" INDICATES FEW OR NO CLOUDS BELOW 12,000 FEET  
WITH NO SIGNIFICANT WEATHER AND/OR S TO VISIBILITY
 
 
NCZ015>017-031-032-045>047-102-103-301000-  
NORTH COAST  
 
CITY SKY/WX TMP DP RH WIND PRES REMARKS
 
EDENTON CLEAR 62 62 100 CALM 30.01R  
ELIZABETH CITY CLEAR 60 56 86 NW6 29.98R  
KITTY HAWK PTCLDY 62 58 86 CALM 29.96S  
MANTEO PTCLDY 65 56 72 N7 29.98R  
 

 
 
NCZ045>047-081-094-103-104-301000-  
CENTRAL COAST  
 
CITY SKY/WX TMP DP RH WIND PRES REMARKS
 
FRISCO MOCLDY 68 62 81 VRB7 29.95S  
ENGELHARD CLOUDY 64 61 91 N3 29.97R  
 

 
 
NCZ095-097-098-100-101-301000-  
SOUTHERN COAST  
 
CITY SKY/WX TMP DP RH WIND PRES REMARKS
 
PINEY ISLAND CLOUDY 77 67 71 N10 29.96S  
HAVELOCK CLOUDY 69 60 73 N7 29.99R  
BEAUFORT CLOUDY 69 61 75 N5 29.97R  
CAPE CARTERET CLOUDY 68 57 68 N5 29.98R  
JACKSONVILLE PTCLDY 66 58 75 N7 29.98S  
WILMINGTON CLOUDY 67 56 67 N7 29.99R  
 

 
 
NCZ011>013-027>030-043-044-078>080-089-090>093-098-301000-  
COASTAL PLAIN  
 
CITY SKY/WX TMP DP RH WIND PRES REMARKS
 
AHOSKIE CLEAR 58 58 100 NW3 30.02R  
TARBORO CLEAR 59 58 97 CALM 30.02R  
WILLIAMSTON SUNNY 60 58 92 NW5 30.02R  
ROCKY MOUNT CLEAR 63 55 75 N6 30.03R  
GREENVILLE CLEAR 63 63 100 N5 30.01R  
WASHINGTON PTCLDY 62 57 85 NW6 30.01R  
GOLDSBORO CLEAR 63 53 68 N3 30.03R  
KINSTON PTCLDY 64 57 76 N6 30.01S  
MOUNT OLIVE PTCLDY 63 53 71 NW7 30.02R  
NEW BERN CLOUDY 67 58 72 N5 29.99R  
KENANSVILLE CLOUDY 63 57 82 NW3 30.02R  
RICHLANDS PTCLDY 61 57 87 CALM 30.00R  
WALLACE CLOUDY 61 58 90 W3 30.01R  
CLINTON PTCLDY 67 53 60 N3 30.03R  
ELIZABETHTOWN PTCLDY 66 51 60 N3 30.03R  
WHITEVILLE PTCLDY 65 52 63 N5 30.03R  
 

 
 
AMZ130-135-150-152-154-156-158-170-250-252-270-ANZ085-086-088-633-658-670-301000-  
MARINE OBSERVATIONS  
 
STATION/POSITION TIME TEMP WIND PRES WAVE SWELL
 
AIR SEA DIR/SP/G HT/PER HT/PER  
(UTC) (F) (DEG/KT/KT) (MB) (FT/S) (FT/S)  
64 E VA BEACH 0850 63 63 300/ 6/ 6 1014.1 3/ 8 2/ 8  
64 E VA BEACH 0830 62 63 N/A 3/ 7 2/10  
DUCK PIER 0830 68 360/ 10/ 11 1014.4  
2 E DUCK 0856 68 N/A 3/ 4  
10 NE DUCK 0830 66 67 N/A 3/ 5  
OREGON INLET 0830 65 77 360/ 4/ 5 1015.5  
13E OREGON INLT 0856 70 N/A 3/ 4 2/ 4  
13E CAPE HATTERA 0800 71 N/A 3/ 3  
HATTERAS CG 0830 70 78 40/ 10/ 13 1014.6  
DIAMOND BUOY 0850 72 30/ 16/ 19 1013.6 3/ 3  
CAPE LOOKOUT 0900 71 10/ 11/ 17 1015.1  
BEAUFORT LAB 0830 71 80 10/ 8/ 12 1014.0  
30 SE NEW RVR IN 0808 74 76 360/ 19/ 25 1014.3  
30 SE NEW RVR IN 0856 75 N/A 3/ 3  
27 SE WRIGHTSVLE 0808 75 77 20/ 19/ 25 1014.3  
5 SE WRIGHTSVLE 0808 73 75 10/ 17/ 23 1014.4  
27 SE WRIGHTSVL 0808 75 77 20/ 19/ 25 1014.3  
FRYING PAN BUOY 0850 76 77 10/ 16/ 19 1014.5 2/ 8 2/ 8  
225 S CAPE HAT 0900 78 78 240/ 8/ 10 1012.7  
41 SE CHARLESTON 0850 79 79 320/ 12/ 16 1014.4 2/ 4  
 

 
 
 
CLICK HERE TO GO TO PREVIOUS BULLETINS.

The Nexlab NC Page Main Text Page